RH
87 81 85 85 82 82 86 82 70 71 69 70 68 66 72 80 86 63 53 50 53 67 76 59 67 69 72 68 86 88 95 78 54 52 42 33 40 32 35 32 35 43 45 52 97
86 84 73 75 78 79 76 71 69 69 70 69 69 71 69 68 66 58 49 95 82 71 66 59 55 56 64 68 67 99 84 70 42 39 42 35 32 32 34 40 41 48 56 78 99
77 74 81 71 79 81 76 72 70 70 70 70 71 66 77 77 60 41 82 73 75 74 61 58 54 56 69 57 62 63 91 50 48 40 37 39 34 31 37 44 30 39 58 88 93
73 74 70 81 80 72 72 72 75 73 73 72 70 77 82 75 64 39 80 69 62 56 53 53 59 68 72 72 53 65 57 60 46 44 43 44 36 34 32 30 24 29 56 86 86
75 86 81 81 81 74 77 79 79 75 76 76 74 70 68 66 59 46 51 58 58 53 51 57 63 62 69 56 53 64 47 62 53 60 51 37 44 39 36 30 32 33 60 87 89
72 74 77 80 83 85 80 79 78 78 78 75 74 76 70 77 44 45 49 57 56 54 54 51 74 45 53 52 55 48 53 50 55 57 54 55 48 46 36 46 46 43 57 76 92
87 92 89 85 82 81 82 82 79 77 79 75 75 72 69 59 51 50 52 54 54 58 59 52 59 76 50 53 48 50 68 50 60 62 79 55 63 55 37 52 54 50 52 67 83
75 76 82 86 86 85 86 82 74 78 74 67 68 61 59 56 57 60 54 53 56 61 62 56 68 72 82 46 58 59 61 88 51 54 80 80 72 46 40 50 53 57 59 64 76
80 82 84 88 86 86 85 62 69 69 70 56 61 64 53 52 46 51 58 52 56 59 61 58 62 85 75 88 69 62 59 58 51 47 59 95 78 44 41 47 49 59 62 70 77
83 84 86 89 87 86 74 44 52 52 51 60 61 64 47 44 48 50 49 57 52 51 62 59 76 95 92 91 90 56 55 40 44 40 60 78 79 49 45 46 47 57 67 73 84
75 86 86 88 89 85 67 59 46 42 55 62 57 61 48 47 49 43 41 48 50 53 55 57 73 94 94 63 53 44 39 40 37 36 65 66 59 56 46 48 50 60 71 77 83
82 87 91 90 92 64 69 61 80 87 90 50 50 55 54 59 60 34 48 51 52 56 49 60 71 50 56 62 71 68 47 42 38 43 64 60 67 51 53 45 49 56 64 75 86
85 90 92 86 68 69 82 78 97 99 81 53 41 45 45 56 46 41 45 50 57 57 51 57 37 41 61 96 95 92 58 44 46 51 57 61 74 69 58 49 44 58 50 65 80
86 94 92 65 59 81 64 85 84 93 82 28 29 43 44 33 48 41 45 51 66 62 54 55 38 44 50 70 95 99 54 41 45 67 91 64 66 69 58 56 54 66 71 63 71
91 92 93 69 78 68 71 86 83 72 53 29 35 34 31 44 40 57 58 61 82 70 66 48 45 48 52 52 64 99 65 56 58 61 74 90 100 41 51 55 56 53 74 59 52
93 88 78 80 82 77 69 71 68 64 43 42 36 43 45 42 42 49 67 79 79 89 82 68 60 66 48 49 51 72 78 86 75 88 99 76 76 75 60 50 46 46 46 48 48
85 61 65 72 67 63 76 53 65 61 35 45 52 50 52 51 47 56 93 90 91 93 86 65 62 53 57 52 62 75 99 92 93 97 81 45 92 55 31 38 39 45 43 43 42
50 54 64 69 58 71 67 70 55 59 54 47 55 53 57 50 50 55 67 69 94 97 86 71 66 52 44 47 66 82 87 66 56 72 60 70 90 44 30 32 34 40 40 40 48
45 58 67 58 54 63 61 73 70 58 54 65 56 56 52 50 61 69 60 90 98 100 94 79 61 49 42 51 47 74 86 39 82 80 43 54 45 46 39 35 34 43 43 43 47
68 61 62 51 53 59 86 72 65 51 58 70 78 64 64 61 69 68 83 93 99 98 100 100 92 57 53 48 48 62 48 80 87 94 70 69 57 39 43 41 37 42 46 44 40
63 52 51 49 46 64 83 77 64 51 59 77 79 79 66 75 66 74 76 55 83 86 89 100 98 96 64 66 60 93 96 82 62 63 83 72 58 33 31 31 36 34 35 43 43
61 71 48 45 78 91 80 73 64 58 55 64 73 72 75 55 72 81 77 66 50 58 95 96 100 93 74 75 37 47 87 75 67 90 66 59 40 27 28 27 27 24 30 33 45
80 73 50 61 83 83 62 66 64 54 52 66 59 71 66 49 80 61 61 50 50 62 99 100 99 89 96 92 55 59 81 99 86 78 72 51 38 27 29 30 32 30 28 26 28
82 86 86 88 88 81 72 58 53 42 56 56 59 54 56 60 57 72 68 56 52 59 85 89 98 94 72 69 86 87 86 92 80 73 78 44 34 30 31 32 36 43 44 41 36
85 93 85 83 79 87 91 79 58 55 47 49 51 41 58 91 77 83 60 65 53 61 70 95 95 94 76 62 65 83 97 100 99 58 52 39 36 32 30 33 40 46 52 51 48
81 86 82 80 75 90 91 77 70 54 64 52 53 48 54 73 68 84 79 75 76 68 83 88 87 93 94 62 52 82 95 94 78 56 45 42 42 29 27 33 43 46 50 54 52
97 93 76 80 83 79 79 83 81 71 57 56 55 63 55 54 53 55 60 66 80 93 89 91 95 92 94 85 61 87 90 80 69 76 56 57 46 29 30 34 40 46 47 49 50
Wind_Speed
19 19 19 20 21 20 17 19 21 22 22 21 21 21 21 21 20 19 21 20 21 18 15 19 8 8 8 9 6 4 6 12 26 19 12 9 14 9 3 6 7 8 3 2 20
19 19 21 20 19 18 19 21 22 22 21 21 21 21 20 21 21 23 17 16 19 20 18 15 11 9 12 14 10 5 9 27 19 16 9 8 14 16 9 6 8 8 3 14 20
20 20 18 20 20 21 21 22 23 23 23 23 21 21 20 18 15 9 7 23 18 3 17 14 15 10 15 16 22 16 10 21 14 16 16 6 11 7 13 13 16 16 15 16 19
22 20 21 20 19 21 22 23 23 25 25 24 23 21 19 14 8 2 7 25 16 12 4 15 14 14 9 18 21 18 16 17 21 14 14 10 4 9 15 11 14 10 17 19 21
21 21 21 22 22 23 24 26 26 28 26 25 23 21 16 9 18 28 27 15 7 13 11 4 20 19 15 17 21 24 22 14 13 7 9 14 12 10 12 6 4 11 18 20 16
21 21 22 22 23 25 26 26 30 29 27 25 22 19 16 18 14 13 11 9 8 11 11 10 5 21 13 17 17 15 20 17 18 18 13 10 10 5 7 2 6 14 19 21 17
22 22 23 24 24 26 27 28 30 29 24 21 17 13 8 16 11 18 15 17 15 10 9 7 4 8 15 13 21 19 10 21 18 13 7 12 11 18 8 4 7 13 16 19 17
23 25 24 25 25 26 26 29 28 26 19 12 9 7 6 7 11 10 7 9 6 11 14 6 6 8 5 12 6 21 16 12 16 21 9 12 23 20 13 10 9 11 14 17 19
23 23 24 24 25 25 26 27 24 18 6 16 3 3 4 5 5 7 3 4 5 1 11 9 8 3 7 7 13 15 17 23 21 18 15 12 4 18 18 12 11 11 13 16 15
22 24 24 24 25 26 24 23 17 7 20 2 1 4 3 4 8 12 11 7 6 1 6 9 3 2 6 11 12 20 19 19 22 22 23 19 15 3 12 15 13 11 12 15 14
22 23 24 24 24 20 20 9 6 2 13 7 14 7 11 8 16 6 9 7 8 6 8 12 8 8 12 21 19 19 17 21 15 15 15 25 23 20 9 13 11 10 11 14 14
22 24 24 24 22 12 10 6 7 6 10 10 12 9 13 5 7 10 3 5 8 13 6 6 15 14 11 18 14 23 21 18 15 15 11 14 22 21 16 18 15 11 13 14 12
23 23 23 23 14 7 3 7 12 5 4 8 5 5 4 3 10 8 4 2 7 8 12 13 10 15 15 9 13 20 24 20 15 16 14 7 12 16 18 14 17 14 15 13 16
21 21 21 21 2 8 3 14 14 3 2 7 3 0 3 15 5 3 5 3 3 7 8 10 17 15 16 19 10 13 29 23 19 13 6 12 9 15 19 20 15 17 14 17 19
21 22 18 12 9 6 11 17 4 3 2 13 4 4 15 4 10 3 1 3 9 7 5 5 7 13 19 21 16 6 19 19 14 16 3 7 3 16 18 20 23 22 25 21 18
24 20 17 7 7 6 21 12 3 2 4 7 7 16 15 5 6 3 1 1 3 6 9 15 1 6 17 10 16 10 11 13 11 6 6 11 13 4 13 28 25 22 26 27 21
26 23 9 6 6 21 14 2 2 3 7 10 10 14 15 11 8 6 6 3 4 4 6 8 13 9 9 16 9 13 6 5 6 5 6 15 9 12 14 21 22 24 22 24 21
28 13 4 5 19 14 4 2 2 2 6 11 12 17 5 13 11 15 9 6 7 2 2 5 6 15 14 16 8 19 7 3 7 7 8 3 9 11 20 10 13 19 22 19 18
26 7 3 11 18 9 3 3 3 4 8 11 17 7 5 8 10 9 11 5 4 7 5 4 6 6 11 10 17 14 14 11 3 2 11 8 9 8 7 12 12 17 19 25 26
10 6 4 25 11 2 2 2 2 2 7 6 6 4 10 14 11 12 5 2 7 4 11 3 4 7 12 14 17 9 16 9 5 4 7 5 6 6 10 15 11 17 20 19 21
6 3 8 24 6 3 3 3 4 4 6 4 6 7 7 13 14 8 6 6 6 15 15 3 5 3 12 16 17 6 8 5 4 8 2 2 3 2 3 5 12 12 14 17 19
3 3 15 16 3 2 3 6 5 6 4 4 7 8 7 14 8 6 6 7 14 17 9 4 3 4 17 1 15 14 6 7 9 6 6 3 1 2 4 2 3 5 8 10 12
2 2 8 7 4 5 8 5 4 6 8 5 6 6 7 9 7 8 10 8 12 14 5 8 3 2 10 2 10 17 11 2 1 2 2 6 3 3 1 3 2 4 5 7 9
1 3 3 4 3 4 7 5 9 8 6 6 6 6 13 7 4 10 12 11 25 12 17 14 2 4 4 6 10 11 13 10 3 5 7 2 8 5 5 5 3 4 3 5 8
4 2 1 4 3 5 6 4 9 11 4 6 3 10 12 6 9 3 12 21 10 4 16 8 4 4 5 5 16 16 16 10 3 11 10 8 8 6 6 5 4 4 5 6 8
2 2 2 3 4 4 2 1 6 9 4 5 8 17 13 7 10 19 18 14 9 9 11 6 5 5 4 8 17 12 15 15 9 2 8 9 6 3 5 6 8 7 7 6 7
2 1 1 2 2 3 2 3 5 11 6 9 14 16 13 8 17 23 21 19 17 13 5 6 6 5 4 1 16 9 5 3 10 9 3 12 7 4 10 12 12 10 8 5 5
Wind_Direction
343 346 346 344 339 332 333 331 324 321 318 317 314 312 311 313 308 298 286 272 253 254 263 259 269 242 243 234 223 146 237 215 223 217 222 193 204 154 134 213 209 191 266 341 144
350 346 338 333 329 326 328 325 322 319 317 316 316 314 312 313 308 291 283 14 245 241 247 229 244 228 223 218 209 218 232 225 227 224 227 206 213 193 185 182 218 198 163 144 150
347 342 337 335 335 333 326 326 322 317 314 312 312 310 313 319 307 267 127 17 8 267 239 244 237 230 223 227 213 224 219 213 226 230 220 223 208 191 205 221 230 205 172 165 161
341 336 333 330 331 328 323 321 319 315 314 313 313 311 305 304 285 308 273 347 349 357 289 228 225 214 220 217 218 224 232 231 218 220 202 200 194 196 200 196 222 218 168 166 171
340 335 335 338 332 326 324 322 317 314 313 312 307 301 299 262 249 268 289 312 334 1 350 329 214 212 217 219 226 222 232 217 218 222 204 204 210 228 214 206 197 173 171 171 174
339 335 333 330 328 326 325 322 317 313 314 309 302 294 277 273 285 282 271 255 290 308 298 295 298 218 233 234 224 222 227 222 225 227 207 193 206 206 209 217 195 177 179 175 168
334 336 338 335 330 326 325 321 315 315 316 310 304 294 263 254 281 292 283 280 289 262 261 276 282 283 227 220 229 235 226 227 226 233 234 230 235 222 184 167 189 192 177 178 171
340 336 335 334 331 328 325 319 318 319 316 317 307 287 262 273 305 312 310 296 283 250 224 258 164 290 244 235 207 211 226 227 226 210 208 226 224 218 198 191 196 190 172 176 182
343 340 337 337 334 333 328 325 320 324 325 322 238 226 270 308 314 336 275 271 311 225 199 171 188 216 206 223 217 197 210 217 213 203 195 216 218 237 188 196 201 189 179 178 177
341 342 342 338 336 335 332 331 330 340 346 22 82 251 236 334 308 298 274 266 264 166 172 205 183 219 249 187 209 204 216 210 217 206 203 193 229 227 176 210 207 185 183 185 178
335 337 339 339 338 340 349 348 1 334 356 298 302 285 297 303 294 263 305 228 241 246 238 201 215 216 226 211 230 224 217 218 209 200 198 211 212 216 189 203 198 183 189 193 183
337 337 338 338 337 350 16 36 25 302 307 314 276 262 273 287 298 320 209 205 215 237 238 217 231 228 236 239 221 243 228 218 202 201 205 210 221 225 218 223 210 188 202 200 177
338 337 337 338 340 2 17 31 327 287 279 295 280 280 301 251 311 298 198 226 245 244 229 249 258 208 221 238 232 236 220 205 200 191 205 207 237 231 212 221 220 200 227 204 190
339 338 339 341 357 342 325 331 333 192 296 358 344 80 259 315 264 244 240 272 232 260 245 244 242 246 227 222 201 262 221 221 206 186 193 207 238 213 214 210 213 204 204 207 198
340 340 340 341 311 319 323 328 322 223 306 342 322 315 320 274 318 139 29 257 234 217 215 217 239 230 229 230 192 277 196 207 196 211 213 174 214 239 204 211 211 201 197 209 206
339 338 335 332 320 293 323 325 202 259 327 339 321 328 338 333 315 292 325 267 303 226 227 263 288 259 236 220 201 218 172 184 195 217 231 197 209 248 192 208 211 203 204 203 209
341 334 330 330 336 323 328 255 294 23 344 326 329 328 329 324 333 324 310 267 231 225 214 231 241 236 239 210 215 187 223 140 164 202 240 213 208 239 212 216 214 199 197 202 201
342 346 6 326 330 332 311 260 338 4 315 317 312 312 321 357 337 331 335 342 200 207 263 241 214 199 202 211 191 190 216 146 178 190 202 159 214 234 224 211 226 209 195 185 186
347 1 28 350 336 336 291 45 339 345 331 317 315 330 3 349 335 328 329 337 332 213 237 231 246 187 197 185 194 188 207 211 17 212 206 189 233 273 223 212 199 208 192 189 182
352 351 357 343 339 314 53 21 296 267 322 298 318 340 336 345 338 344 304 30 344 346 286 243 268 206 185 188 197 209 178 182 202 239 192 195 235 216 183 190 180 185 190 195 196
29 23 349 348 352 37 52 329 302 307 318 292 309 299 319 341 323 314 301 330 16 340 328 271 232 182 162 201 186 153 174 199 216 239 358 133 182 95 193 202 199 184 186 186 192
26 25 349 357 21 16 3 329 323 316 332 301 283 291 324 331 306 291 289 302 349 344 309 274 281 243 189 43 213 195 176 197 191 186 234 305 96 359 295 245 194 183 182 173 188
40 310 354 2 38 2 334 332 306 322 336 328 306 343 346 311 312 291 321 308 339 337 327 338 268 208 134 135 197 192 159 136 151 89 164 212 149 38 124 122 131 178 179 174 174
39 2 11 53 76 3 345 334 342 331 298 320 294 313 340 316 300 295 307 319 323 319 342 329 283 312 274 157 141 171 168 158 240 187 139 318 123 81 68 95 120 128 161 168 171
18 61 35 339 18 348 319 310 331 354 317 324 301 335 340 298 305 251 320 326 310 331 344 348 294 318 318 221 161 156 153 135 201 143 134 149 97 63 45 52 70 99 116 131 148
51 4 345 299 333 333 22 6 316 335 301 307 317 324 319 272 291 301 313 314 286 321 335 325 310 312 52 173 166 144 150 164 146 205 115 111 89 25 43 61 70 78 105 120 138
70 113 304 351 343 313 35 324 294 319 287 265 310 315 311 319 309 289 279 271 264 283 302 301 321 323 65 304 134 124 74 158 90 34 186 130 19 54 69 53 42 49 58 85 130